VINASAT-1

Last updated on Tue Sep 22 2026 00:03:11 GMT+0000 (Coordinated Universal Time)

1 32767U 08018A 26264.37267682 .00000000 00000+0 00000+0 0 9991 2 32767 0.0146 167.1959 0001946 31.0175 68.1552 1.00268699 67554
UTC large
Height (km)
Speed (km/s)
/
Latitude / Longitude
Inclination (degrees)
Orbital Period (minutes)
Azimuth
Elevation
Range (km)
Doppler Factor

Next 0 passes for location: London (51.5072 / 0.1276)

No passes found over London.
VINASAT-1